Погода в Калиновке

Украина / Винницкая область     49°26′49″N   28°31′23″E
темп.,
°C
ветер,
м/с
пор.,
м/с
влажн.,
%
обл.,
%
осадки,
мм/ч
давл.,
гПа
погр.,
м
17 августа, ср
ср1700:00+17в489845 1.1 1009241
03:00+17в369957 1.1 1009183
06:00+18в259697 0.2 1008218
09:00+19в239090 0.8 1009257
12:00+21вюв237854 2.3 1009500
15:00+24всв236892 5.3 10081047
18:00+23св457745 2.9 1009714
21:00+19св369082 4.7 1009100
18 августа, чт
чт1800:00+18всв229715 0.8 101043
03:00+17св349779 2.2 1010100
06:00+17ссв249647 0.4 101074
09:00+19с2592100 1.3 1011193
12:00+20с248587 0.0 1011244
15:00+28ссв34431 0.0 10101574
18:00+28св35440 0.0 1010980
21:00+22св22580 0.0 101115
19 августа, пт
пт1900:00+20ссв33640 0.0 101240
03:00+18ссв35690 0.0 101272
06:00+17ссв36760 0.0 1012109
09:00+21ссв47620 0.0 1013411
12:00+26св45500 0.0 10121147
15:00+28св44430 0.0 10121576
18:00+28всв44464 0.0 10121751
21:00+22св34630 0.0 101350
20 августа, сб
сб2000:00+21всв511725 0.0 1013245
03:00+19всв22830 0.0 101412
06:00+18всв33860 0.0 101354
09:00+23в566891 0.0 1013403
12:00+28вюв45511 0.0 10131184
15:00+30вюв33411 0.0 10122011
18:00+30в444126 0.0 10111980
21:00+23в49610 0.0 1013158
21 августа, вс
вс2100:00+21в49645 0.0 1012157
03:00+22в3659100 0.0 1012123
06:00+22в365685 0.0 1012144
09:00+25вюв34522 0.0 1012341
12:00+29в334212 0.0 10121193
15:00+31юв32366 0.0 10112037
18:00+30всв44371 0.0 10101879
21:00+24в47482 0.0 1010101